Date,Time,Wetness (Wet Dry or Ice),Wind Speed (m/s),Temperature (C),Humidity (%),Pressure (mb),Radiation (W/m^2)
2020-03-30,02:20:00,DRY,3.17,5.50,54.3,771.00,1.0
2020-03-30,02:25:00,DRY,3.25,5.45,55.0,771.00,0.4
2020-03-30,02:30:00,DRY,4.33,5.43,56.0,771.00,1.0
2020-03-30,02:35:00,DRY,3.20,5.30,57.0,771.00,0.7
2020-03-30,02:40:00,DRY,2.40,5.37,56.7,771.00,1.1
2020-03-30,02:45:00,DRY,4.60,5.30,59.0,771.00,1.1
2020-03-30,02:50:00,DRY,4.43,5.07,63.0,771.00,0.9
2020-03-30,02:55:00,DRY,2.70,5.10,61.5,771.00,1.2
2020-03-30,03:00:00,DRY,4.20,5.33,56.3,771.00,0.8
2020-03-30,03:05:00,DRY,4.15,5.25,58.5,771.00,1.5
2020-03-30,03:10:00,DRY,5.03,5.27,58.7,771.00,1.2
2020-03-30,03:15:00,DRY,4.85,5.30,60.0,771.00,1.1
2020-03-30,03:20:00,DRY,3.70,5.00,62.0,771.00,1.1
2020-03-30,03:25:00,DRY,5.65,5.10,60.0,771.00,1.0
2020-03-30,03:30:00,DRY,5.20,5.30,58.7,770.67,1.5
2020-03-30,03:35:00,DRY,2.30,5.20,62.5,770.50,1.8
2020-03-30,03:40:00,DRY,3.53,5.10,63.7,770.33,1.4
2020-03-30,03:45:00,DRY,4.90,4.90,65.5,770.00,0.9
2020-03-30,03:50:00,DRY,4.83,5.00,61.7,770.00,1.0
2020-03-30,03:55:00,DRY,6.30,5.05,59.0,770.00,1.0
2020-03-30,04:00:00,DRY,5.03,5.00,62.0,770.00,0.9
2020-03-30,04:05:00,DRY,4.45,4.90,64.0,770.00,0.9
2020-03-30,04:10:00,DRY,4.83,5.10,58.0,770.00,1.3
2020-03-30,04:15:00,DRY,6.40,5.30,56.5,770.00,1.1
2020-03-30,04:20:00,DRY,3.07,5.00,65.0,770.00,0.8
2020-03-30,04:25:00,DRY,3.85,4.65,72.0,770.00,1.2
2020-03-30,04:30:00,DRY,5.23,4.50,72.0,770.00,1.2
2020-03-30,04:35:00,DRY,3.40,4.45,70.0,770.00,0.8
2020-03-30,04:40:00,DRY,4.03,4.40,73.7,770.00,1.0
2020-03-30,04:45:00,DRY,3.00,4.40,73.5,770.00,0.9
2020-03-30,04:50:00,DRY,4.87,4.77,65.0,770.00,1.2
2020-03-30,04:55:00,DRY,3.95,4.95,65.0,770.00,0.9
2020-03-30,05:00:00,DRY,3.90,4.77,68.0,770.00,1.4
2020-03-30,05:05:00,DRY,4.30,4.55,72.5,770.00,1.4
2020-03-30,05:10:00,DRY,4.67,4.40,74.7,770.00,1.5
2020-03-30,05:15:00,DRY,4.55,4.60,71.5,770.00,1.4
2020-03-30,05:20:00,DRY,5.63,4.90,60.0,770.00,1.2
2020-03-30,05:25:00,DRY,5.60,5.00,62.5,770.00,1.3
2020-03-30,05:30:00,DRY,5.53,4.53,73.0,770.00,1.2
2020-03-30,05:35:00,DRY,3.95,4.35,73.5,770.00,1.3
2020-03-30,05:40:00,DRY,5.10,4.30,76.7,770.00,1.5
2020-03-30,05:45:00,DRY,3.60,4.35,73.5,770.00,1.1
2020-03-30,05:50:00,DRY,5.27,4.50,69.0,770.00,1.2
2020-03-30,05:55:00,DRY,4.70,4.65,65.5,770.00,1.4
2020-03-30,06:00:00,DRY,4.40,4.80,61.0,770.00,1.4
2020-03-30,06:05:00,DRY,4.95,4.90,58.0,770.00,0.5
2020-03-30,06:10:00,DRY,5.27,5.00,57.7,770.00,1.2
2020-03-30,06:15:00,DRY,5.10,4.95,57.5,770.00,1.6
2020-03-30,06:20:00,DRY,6.07,5.13,56.0,770.00,1.7
2020-03-30,06:25:00,DRY,6.20,4.95,57.5,770.00,1.9
2020-03-30,06:30:00,DRY,6.87,5.07,56.3,770.00,1.2
2020-03-30,06:35:00,DRY,6.00,4.90,59.5,770.00,1.2
2020-03-30,06:40:00,DRY,5.60,4.93,57.0,770.00,1.3
2020-03-30,06:45:00,DRY,7.15,5.30,53.5,770.00,1.9
2020-03-30,06:50:00,DRY,5.63,5.23,52.7,770.00,2.2
2020-03-30,06:55:00,DRY,6.55,5.25,52.5,770.00,3.5
2020-03-30,07:00:00,DRY,5.37,5.20,53.0,770.00,5.9
2020-03-30,07:05:00,DRY,7.50,5.15,52.0,770.00,10.6
2020-03-30,07:10:00,DRY,7.37,5.37,51.7,770.00,18.4
2020-03-30,07:15:00,DRY,5.70,5.30,50.5,770.00,16.1
2020-03-30,07:20:00,DRY,5.90,5.33,51.3,770.00,18.0
2020-03-30,07:25:00,DRY,5.70,5.35,50.5,770.00,19.9
2020-03-30,07:30:00,DRY,6.73,5.37,48.7,770.00,22.2
2020-03-30,07:35:00,DRY,6.15,5.55,46.0,770.00,24.0
2020-03-30,07:40:00,DRY,5.90,5.57,45.3,770.33,25.9
2020-03-30,07:45:00,DRY,5.75,5.55,47.5,771.00,27.8
2020-03-30,07:50:00,DRY,4.83,5.37,45.7,770.33,29.1
2020-03-30,07:55:00,DRY,8.20,5.25,47.0,770.00,30.2
2020-03-30,08:00:00,DRY,7.10,5.57,46.0,770.33,31.8
2020-03-30,08:05:00,DRY,5.05,5.70,44.5,771.00,32.8
2020-03-30,08:10:00,DRY,8.20,5.83,45.7,770.67,68.3
2020-03-30,08:15:00,DRY,7.40,6.00,47.5,771.00,319.2
2020-03-30,08:20:00,DRY,5.07,6.10,46.3,771.00,344.1
2020-03-30,08:25:00,DRY,7.15,6.05,47.0,771.00,367.9
2020-03-30,08:30:00,DRY,6.57,6.10,46.0,771.00,391.2
2020-03-30,08:35:00,DRY,4.60,6.00,47.5,771.00,414.2
2020-03-30,08:40:00,DRY,6.20,6.13,47.3,771.00,437.9
2020-03-30,08:45:00,DRY,5.30,6.20,47.5,771.00,461.1
2020-03-30,08:50:00,DRY,6.77,6.23,47.7,771.00,484.6
2020-03-30,08:55:00,DRY,7.35,6.20,47.5,771.00,506.9
2020-03-30,09:00:00,DRY,6.55,6.30,47.5,771.00,529.5
2020-03-30,09:05:00,DRY,2.55,6.40,47.0,771.00,550.0
2020-03-30,09:10:00,DRY,4.57,6.43,47.3,771.00,573.0
2020-03-30,09:15:00,DRY,5.00,6.50,47.5,770.50,594.8
2020-03-30,09:20:00,DRY,4.07,6.60,47.0,771.00,615.5
2020-03-30,09:25:00,DRY,5.15,6.65,46.5,771.00,637.0
2020-03-30,09:30:00,DRY,3.53,6.77,47.0,771.00,657.6
2020-03-30,09:35:00,DRY,4.95,6.75,47.0,771.00,678.3
2020-03-30,09:40:00,DRY,4.97,6.90,46.7,771.00,698.0
2020-03-30,09:45:00,DRY,6.50,6.95,48.0,771.00,717.5
2020-03-30,09:50:00,DRY,5.30,7.20,44.7,771.00,737.4
2020-03-30,09:55:00,DRY,3.65,7.25,47.5,771.00,756.7
2020-03-30,10:00:00,DRY,5.47,7.30,48.7,771.00,775.3
2020-03-30,10:05:00,DRY,4.20,7.45,47.5,771.00,793.4
2020-03-30,10:10:00,DRY,5.10,7.37,49.3,771.00,811.1
2020-03-30,10:15:00,DRY,3.35,7.60,46.5,771.00,828.0
2020-03-30,10:20:00,DRY,3.83,7.53,47.7,771.00,845.3
2020-03-30,10:25:00,DRY,4.65,7.90,45.5,771.00,861.7
2020-03-30,10:30:00,DRY,4.77,7.93,43.7,771.00,878.1
2020-03-30,10:35:00,DRY,5.95,7.85,43.0,771.00,893.9
2020-03-30,10:40:00,DRY,5.17,8.00,45.7,771.00,908.2
2020-03-30,10:45:00,DRY,5.00,8.25,43.0,771.00,922.7
2020-03-30,10:50:00,DRY,4.87,8.27,44.0,771.00,937.7
2020-03-30,10:55:00,DRY,6.85,8.25,45.0,771.00,951.0
2020-03-30,11:00:00,DRY,5.57,8.13,45.3,771.00,965.5
2020-03-30,11:05:00,DRY,5.20,8.20,44.5,771.00,977.3
2020-03-30,11:10:00,DRY,4.17,8.17,47.7,771.00,990.1
2020-03-30,11:15:00,DRY,4.90,8.00,49.0,771.00,1001.5
2020-03-30,11:20:00,DRY,6.60,7.77,49.3,771.00,1012.5
2020-03-30,11:25:00,DRY,6.00,8.20,50.0,771.00,1024.0
2020-03-30,11:30:00,DRY,6.67,8.00,46.3,771.00,1035.4
2020-03-30,11:35:00,DRY,4.05,8.15,47.0,771.00,1044.2
2020-03-30,11:40:00,DRY,4.93,8.40,46.0,771.00,1054.5
2020-03-30,11:45:00,DRY,4.30,8.40,43.5,771.00,1064.3
2020-03-30,11:50:00,DRY,4.73,8.43,42.7,771.00,1072.3
2020-03-30,11:55:00,DRY,4.70,8.35,45.5,771.00,1080.8
2020-03-30,12:00:00,DRY,5.83,8.40,46.0,771.00,1089.7
2020-03-30,12:05:00,DRY,3.95,8.55,44.0,771.00,1095.9
2020-03-30,12:10:00,DRY,4.60,8.63,48.7,771.00,1106.1
2020-03-30,12:15:00,DRY,5.70,8.85,46.5,771.00,1110.5
2020-03-30,12:20:00,DRY,5.27,8.77,46.3,771.00,1116.5
2020-03-30,12:25:00,DRY,3.80,8.40,45.0,771.00,1125.8
2020-03-30,12:30:00,DRY,6.77,8.90,45.3,770.33,1129.9
2020-03-30,12:35:00,DRY,4.15,9.15,43.0,771.00,1129.3
2020-03-30,12:40:00,DRY,5.00,9.07,42.7,771.00,1133.6
2020-03-30,12:45:00,DRY,5.05,9.40,39.0,771.00,1137.0
2020-03-30,12:50:00,DRY,5.70,9.67,41.7,770.33,1138.3
2020-03-30,12:55:00,DRY,3.45,9.30,42.5,770.50,1142.2
2020-03-30,13:00:00,DRY,3.67,9.30,43.3,770.67,1150.3
2020-03-30,13:05:00,DRY,5.25,9.35,40.0,770.50,1152.3
2020-03-30,13:10:00,DRY,5.40,9.17,39.0,770.00,1146.8
2020-03-30,13:15:00,DRY,5.60,9.25,44.0,770.00,1146.2
2020-03-30,13:20:00,DRY,2.77,9.00,44.0,770.00,1145.1
2020-03-30,13:25:00,DRY,6.45,9.10,45.0,770.00,1149.3
2020-03-30,13:30:00,DRY,4.00,8.70,52.0,770.00,1143.4
2020-03-30,13:35:00,DRY,3.90,9.20,43.0,770.00,1149.7
2020-03-30,13:40:00,DRY,5.20,9.17,45.0,770.00,1139.1
2020-03-30,13:45:00,DRY,4.85,9.25,45.0,770.00,1136.4
2020-03-30,13:50:00,DRY,3.50,9.30,42.3,770.00,1132.6
2020-03-30,13:55:00,DRY,4.00,9.60,36.5,770.00,1130.8
2020-03-30,14:00:00,DRY,3.80,9.60,43.7,770.00,1128.5
2020-03-30,14:05:00,DRY,2.85,9.55,41.5,770.00,1122.3
2020-03-30,14:10:00,DRY,4.65,9.40,45.5,770.00,1115.3
2020-03-30,14:15:00,DRY,6.35,9.20,41.0,770.00,1109.8
2020-03-30,14:20:00,DRY,4.20,9.40,41.7,770.00,1103.1
2020-03-30,14:25:00,DRY,6.15,9.20,43.5,770.00,1096.6
2020-03-30,14:30:00,DRY,4.27,9.37,40.0,770.00,1088.4
2020-03-30,14:35:00,DRY,6.05,9.35,41.0,770.00,1079.8
2020-03-30,14:40:00,DRY,5.77,9.33,42.0,770.00,1071.6
2020-03-30,14:45:00,DRY,4.60,9.35,42.0,770.00,1062.8
2020-03-30,14:50:00,DRY,5.73,9.60,40.0,770.00,1052.3
2020-03-30,14:55:00,DRY,2.35,9.80,38.0,770.00,1042.7
2020-03-30,15:00:00,DRY,5.30,9.30,39.3,769.67,1032.3
2020-03-30,15:05:00,DRY,4.40,10.00,38.0,770.00,1021.8
2020-03-30,15:10:00,DRY,5.37,9.63,40.3,769.67,1008.0
2020-03-30,15:15:00,DRY,6.60,9.75,40.5,770.00,996.0
2020-03-30,15:20:00,DRY,6.07,9.63,39.0,769.67,983.4
2020-03-30,15:25:00,DRY,6.30,9.50,39.0,769.50,970.7
2020-03-30,15:30:00,DRY,4.87,9.20,39.0,770.00,957.1
2020-03-30,15:35:00,DRY,5.75,9.35,40.0,769.00,942.5
2020-03-30,15:40:00,DRY,4.73,9.27,40.3,769.33,928.1
2020-03-30,15:45:00,DRY,7.55,9.00,39.5,769.50,912.4
2020-03-30,15:50:00,DRY,6.23,9.00,39.0,769.00,897.5
2020-03-30,15:55:00,DRY,5.10,9.10,39.5,769.00,882.1
2020-03-30,16:00:00,DRY,4.97,9.50,41.0,769.00,864.5
2020-03-30,16:05:00,DRY,6.60,9.25,39.0,769.00,849.4
2020-03-30,16:10:00,DRY,5.10,9.37,38.7,769.00,832.2
2020-03-30,16:15:00,DRY,6.60,9.10,39.5,769.00,814.8
2020-03-30,16:20:00,DRY,5.00,9.27,39.0,769.00,796.3
2020-03-30,16:25:00,DRY,4.35,8.70,40.0,769.00,778.1
2020-03-30,16:30:00,DRY,3.67,8.97,40.0,769.00,759.5
2020-03-30,16:35:00,DRY,6.05,8.85,40.0,769.00,739.5
2020-03-30,16:40:00,DRY,6.30,8.83,40.3,769.00,720.4
2020-03-30,16:45:00,DRY,7.95,8.90,39.0,769.00,700.4
2020-03-30,16:50:00,DRY,5.83,9.07,37.3,769.00,681.1
2020-03-30,16:55:00,DRY,4.30,8.95,37.0,769.00,659.9
2020-03-30,17:00:00,DRY,5.20,9.20,40.0,769.00,639.3
2020-03-30,17:05:00,DRY,3.45,9.05,39.5,769.00,617.4
2020-03-30,17:10:00,DRY,7.73,8.63,39.0,769.00,595.4
2020-03-30,17:15:00,DRY,5.40,8.45,39.5,769.00,573.8
2020-03-30,17:20:00,DRY,3.07,8.63,38.0,769.00,552.2
2020-03-30,17:25:00,DRY,6.70,8.85,37.0,769.00,530.0
2020-03-30,17:30:00,DRY,6.33,8.50,38.3,769.00,506.8
2020-03-30,17:35:00,DRY,5.00,8.65,37.5,769.00,485.0
2020-03-30,17:40:00,DRY,4.80,8.60,38.7,769.00,461.8
2020-03-30,17:45:00,DRY,5.90,8.65,37.5,769.00,437.1
2020-03-30,17:50:00,DRY,6.87,8.37,38.3,769.00,414.0
2020-03-30,17:55:00,DRY,5.80,8.35,39.5,769.00,389.9
2020-03-30,18:00:00,DRY,6.80,8.20,39.0,769.00,366.3
2020-03-30,18:05:00,DRY,7.05,8.05,39.5,769.00,342.0
2020-03-30,18:10:00,DRY,6.97,8.30,39.0,769.00,318.6
2020-03-30,18:15:00,DRY,6.10,8.10,38.0,769.00,295.2
2020-03-30,18:20:00,DRY,3.93,8.03,35.7,769.00,272.2
2020-03-30,18:25:00,DRY,6.50,8.10,38.0,769.00,248.1
2020-03-30,18:30:00,DRY,5.77,7.87,37.3,769.00,225.1
2020-03-30,18:35:00,DRY,7.50,7.65,38.5,769.00,176.4
2020-03-30,18:40:00,DRY,5.80,7.40,40.0,769.00,36.2
2020-03-30,18:45:00,DRY,5.50,7.25,40.0,769.00,30.8
2020-03-30,18:50:00,DRY,6.70,7.13,40.0,769.00,29.2
2020-03-30,18:55:00,DRY,7.65,6.85,40.0,769.00,27.4
2020-03-30,19:00:00,DRY,6.90,6.65,39.0,769.00,25.3
2020-03-30,19:05:00,DRY,7.65,6.80,39.5,769.00,22.8
2020-03-30,19:10:00,DRY,6.53,6.87,39.3,769.00,19.9
2020-03-30,19:15:00,DRY,5.45,6.45,39.5,769.00,16.9
2020-03-30,19:20:00,DRY,6.53,6.57,40.7,769.00,13.6
2020-03-30,19:25:00,DRY,6.40,6.60,41.0,769.00,9.9
2020-03-30,19:30:00,DRY,5.90,6.37,40.7,769.00,8.6
2020-03-30,19:35:00,DRY,6.55,6.20,41.5,769.00,4.3
2020-03-30,19:40:00,DRY,6.13,6.17,41.3,769.00,2.5
2020-03-30,19:45:00,DRY,6.20,6.05,41.5,769.00,1.2
2020-03-30,19:50:00,DRY,5.73,6.13,41.3,769.00,1.1
2020-03-30,19:55:00,DRY,6.65,6.10,40.5,769.00,1.2
2020-03-30,20:00:00,DRY,6.43,6.00,42.0,769.00,2.0
2020-03-30,20:05:00,DRY,5.85,5.90,43.0,769.00,1.1
2020-03-30,20:10:00,DRY,5.60,5.83,43.3,769.00,1.3
2020-03-30,20:15:00,DRY,5.65,5.90,42.5,769.00,1.3
2020-03-30,20:20:00,DRY,6.70,5.93,41.7,769.00,0.9
2020-03-30,20:25:00,DRY,4.25,5.90,43.5,769.00,0.7
2020-03-30,20:30:00,DRY,5.27,6.00,40.3,769.67,1.1
2020-03-30,20:35:00,DRY,5.10,6.25,38.0,770.00,1.4
2020-03-30,20:40:00,DRY,6.70,5.83,45.3,769.67,1.1
2020-03-30,20:45:00,DRY,4.60,5.65,47.0,770.00,1.4
2020-03-30,20:50:00,DRY,6.63,5.63,46.7,769.33,0.6
2020-03-30,20:55:00,DRY,4.80,5.70,46.5,769.00,0.3
2020-03-30,21:00:00,DRY,6.30,5.73,47.3,769.33,1.0
2020-03-30,21:05:00,DRY,4.85,5.75,46.0,769.50,0.8
2020-03-30,21:10:00,DRY,5.57,5.70,43.0,770.00,1.1
2020-03-30,21:15:00,DRY,5.20,5.70,42.0,770.00,1.1
2020-03-30,21:20:00,DRY,5.37,5.70,45.7,770.00,0.7
2020-03-30,21:25:00,DRY,5.75,5.80,42.5,769.50,1.1
2020-03-30,21:30:00,DRY,5.13,5.67,40.3,770.00,0.8
2020-03-30,21:35:00,DRY,6.55,5.65,39.5,770.00,1.1
2020-03-30,21:40:00,DRY,5.83,5.57,40.7,770.00,1.0
2020-03-30,21:45:00,DRY,4.30,5.50,39.0,770.00,0.9
2020-03-30,21:50:00,DRY,3.40,5.53,38.7,770.00,1.3
2020-03-30,21:55:00,DRY,3.70,5.60,38.0,770.00,1.2
2020-03-30,22:00:00,DRY,4.97,5.53,38.7,770.00,1.3
2020-03-30,22:05:00,DRY,2.90,5.40,38.5,770.00,2.0
2020-03-30,22:10:00,DRY,4.17,5.47,39.7,770.00,1.0
2020-03-30,22:15:00,DRY,3.35,5.30,40.5,770.00,1.2
2020-03-30,22:20:00,DRY,3.50,5.27,40.7,770.00,0.8
2020-03-30,22:25:00,DRY,3.35,5.40,41.0,770.00,0.7
2020-03-30,22:30:00,DRY,3.57,5.47,39.3,770.00,1.3
2020-03-30,22:35:00,DRY,4.30,5.60,36.0,770.00,1.5
2020-03-30,22:40:00,DRY,4.30,5.50,40.0,770.00,1.1
2020-03-30,22:45:00,DRY,3.45,5.75,35.5,770.00,1.5
2020-03-30,22:50:00,DRY,3.93,5.63,35.3,770.00,1.5
2020-03-30,22:55:00,DRY,5.90,5.90,33.0,770.00,1.0
2020-03-30,23:00:00,DRY,3.73,5.83,30.7,770.00,1.6
2020-03-30,23:05:00,DRY,3.15,5.90,30.0,770.00,1.1
2020-03-30,23:10:00,DRY,5.40,6.13,28.7,770.00,1.2
2020-03-30,23:15:00,DRY,6.00,5.95,32.0,770.00,1.1
2020-03-30,23:20:00,DRY,6.03,6.03,26.7,769.33,1.0
2020-03-30,23:25:00,DRY,5.60,6.25,25.0,769.50,1.0
2020-03-30,23:30:00,DRY,6.17,6.27,25.0,769.00,1.4
2020-03-30,23:35:00,DRY,4.35,6.20,25.5,769.00,0.8
2020-03-30,23:40:00,DRY,4.10,6.23,24.7,769.00,1.7
2020-03-30,23:45:00,DRY,4.50,6.10,24.5,769.00,1.2
2020-03-30,23:50:00,DRY,5.60,6.23,23.0,769.00,1.1
2020-03-30,23:55:00,DRY,5.70,6.40,23.5,769.00,1.4
2020-03-31,00:00:00,DRY,5.77,6.43,26.3,769.00,1.7
2020-03-31,00:05:00,DRY,3.30,6.45,24.0,769.00,1.2
2020-03-31,00:10:00,DRY,5.63,6.30,24.3,769.00,1.0
2020-03-31,00:15:00,DRY,5.65,6.10,25.0,769.00,1.1
2020-03-31,00:20:00,DRY,5.50,6.07,25.3,769.00,1.4
2020-03-31,00:25:00,DRY,7.00,6.00,27.0,769.00,1.1
2020-03-31,00:30:00,DRY,5.40,5.90,26.0,769.00,0.9
2020-03-31,00:35:00,DRY,6.10,5.90,27.0,769.00,0.7
2020-03-31,00:40:00,DRY,6.23,5.73,30.3,769.00,1.1
2020-03-31,00:45:00,DRY,6.50,5.95,26.0,769.00,0.9
2020-03-31,00:50:00,DRY,6.57,6.20,23.3,769.00,1.1
2020-03-31,00:55:00,DRY,6.90,6.15,23.0,769.00,1.2
2020-03-31,01:00:00,DRY,6.60,6.13,21.3,769.00,1.0
2020-03-31,01:05:00,DRY,7.15,6.05,23.5,769.00,0.9
2020-03-31,01:10:00,DRY,7.23,5.87,26.3,769.00,1.1
2020-03-31,01:15:00,DRY,6.65,5.85,26.5,769.00,1.1
2020-03-31,01:20:00,DRY,6.87,5.63,31.0,769.00,1.0
2020-03-31,01:25:00,DRY,5.85,5.50,34.0,769.00,1.9
2020-03-31,01:30:00,DRY,6.60,5.50,34.3,769.00,1.1
2020-03-31,01:35:00,DRY,6.35,5.70,28.0,769.00,1.4
2020-03-31,01:40:00,DRY,6.33,5.47,32.7,769.00,1.1
2020-03-31,01:45:00,DRY,6.05,5.40,33.5,769.00,1.2
2020-03-31,01:50:00,DRY,6.67,5.20,38.0,769.00,1.2
2020-03-31,01:55:00,DRY,6.30,5.35,35.5,768.50,1.1
2020-03-31,02:00:00,DRY,6.23,5.47,33.0,768.67,1.8
2020-03-31,02:05:00,DRY,6.30,5.40,33.0,768.50,1.0
2020-03-31,02:10:00,DRY,6.87,5.43,32.0,768.33,1.0
2020-03-31,02:15:00,DRY,6.90,5.60,30.0,768.00,1.2
2020-03-31,02:20:00,DRY,6.20,5.57,30.0,768.00,1.2
2020-03-31,02:25:00,DRY,7.00,5.70,27.0,768.00,1.1
2020-03-31,02:30:00,DRY,6.47,5.70,27.0,768.00,1.2
2020-03-31,02:35:00,DRY,6.05,5.75,27.5,768.50,0.8
2020-03-31,02:40:00,DRY,6.57,5.67,27.3,768.00,1.1
2020-03-31,02:45:00,DRY,5.15,5.60,26.5,768.00,1.3
2020-03-31,02:50:00,DRY,6.47,5.67,25.3,768.00,0.9
2020-03-31,02:55:00,DRY,6.30,5.65,25.5,768.00,1.1
2020-03-31,03:00:00,DRY,6.83,5.43,27.0,768.00,1.0
2020-03-31,03:05:00,DRY,5.45,5.35,27.0,768.00,1.1
2020-03-31,03:10:00,DRY,5.87,5.73,23.7,768.00,1.2
2020-03-31,03:15:00,DRY,6.25,5.50,24.0,768.00,1.1
2020-03-31,03:20:00,DRY,6.20,5.47,23.0,768.00,1.7
2020-03-31,03:25:00,DRY,5.80,5.60,23.5,768.00,1.2
2020-03-31,03:30:00,DRY,6.20,5.50,22.7,768.00,1.2
2020-03-31,03:35:00,DRY,5.35,5.50,23.5,768.00,1.2
2020-03-31,03:40:00,DRY,5.63,5.37,27.0,768.00,1.2
2020-03-31,03:45:00,DRY,5.15,5.15,31.0,768.00,1.1
2020-03-31,03:50:00,DRY,5.47,4.90,30.7,768.00,0.9
2020-03-31,03:55:00,DRY,5.65,4.70,30.5,768.00,1.2
2020-03-31,04:00:00,DRY,6.00,4.87,27.0,768.00,1.0
2020-03-31,04:05:00,DRY,5.95,4.90,23.5,768.00,1.0
2020-03-31,04:10:00,DRY,5.70,4.90,23.0,768.00,1.1
2020-03-31,04:15:00,DRY,4.65,5.00,23.5,768.00,1.0
2020-03-31,04:20:00,DRY,3.83,4.93,26.0,768.00,1.4
2020-03-31,04:25:00,DRY,4.15,4.75,30.5,768.00,1.0
2020-03-31,04:30:00,DRY,3.87,4.67,30.0,768.00,1.0
2020-03-31,04:35:00,DRY,2.75,4.75,30.0,768.00,0.7
2020-03-31,04:40:00,DRY,4.50,4.73,32.3,768.00,1.1
2020-03-31,04:45:00,DRY,2.75,4.75,34.0,768.00,1.4
2020-03-31,04:50:00,DRY,3.13,4.77,31.0,768.00,1.5
2020-03-31,04:55:00,DRY,3.60,4.85,28.0,768.00,1.9
2020-03-31,05:00:00,DRY,2.93,4.83,28.0,768.00,1.4
2020-03-31,05:05:00,DRY,5.15,4.75,34.0,768.00,1.2
2020-03-31,05:10:00,DRY,5.97,4.63,35.3,768.00,0.9
2020-03-31,05:15:00,DRY,5.60,4.60,36.5,768.00,0.9
2020-03-31,05:20:00,DRY,4.63,4.67,32.7,768.00,1.6
2020-03-31,05:25:00,DRY,2.90,4.70,31.5,768.00,2.2
2020-03-31,05:30:00,DRY,4.57,4.87,31.3,768.00,2.0
2020-03-31,05:35:00,DRY,4.80,4.95,33.5,768.00,1.4
2020-03-31,05:40:00,DRY,5.13,4.80,34.3,768.00,1.2
2020-03-31,05:45:00,DRY,5.95,5.15,31.0,768.00,0.5
2020-03-31,05:50:00,DRY,5.90,5.37,29.0,768.00,0.7
2020-03-31,05:55:00,DRY,5.35,5.05,37.5,768.00,0.9
2020-03-31,06:00:00,DRY,5.53,5.07,37.0,768.00,1.1
2020-03-31,06:05:00,DRY,5.10,4.90,38.0,768.00,1.1
2020-03-31,06:10:00,DRY,5.00,4.93,38.3,768.00,1.2
2020-03-31,06:15:00,DRY,5.45,5.00,35.5,768.00,1.1
2020-03-31,06:20:00,DRY,5.97,5.27,30.0,768.00,1.7
2020-03-31,06:25:00,DRY,5.40,5.15,34.5,768.00,1.2
2020-03-31,06:30:00,DRY,6.13,5.07,37.7,768.00,1.2
2020-03-31,06:35:00,DRY,6.40,4.90,34.0,768.00,1.1
2020-03-31,06:40:00,DRY,5.67,4.90,36.7,768.00,1.0
2020-03-31,06:45:00,DRY,6.05,5.15,29.0,768.00,1.2
2020-03-31,06:50:00,DRY,6.13,5.13,34.0,768.00,2.3
2020-03-31,06:55:00,DRY,5.45,5.20,28.5,768.00,4.8
2020-03-31,07:00:00,DRY,5.80,5.23,28.7,768.00,6.3
2020-03-31,07:05:00,DRY,5.05,5.30,24.5,768.00,9.8
2020-03-31,07:10:00,DRY,4.13,5.37,23.3,768.00,27.4
2020-03-31,07:15:00,DRY,4.30,5.35,24.0,768.50,19.7
2020-03-31,07:20:00,DRY,5.40,5.33,24.0,769.00,20.3
2020-03-31,07:25:00,DRY,3.85,5.30,24.0,769.00,22.6
2020-03-31,07:30:00,DRY,5.13,5.30,29.0,769.00,24.9
2020-03-31,07:35:00,DRY,5.55,5.30,32.0,768.50,25.8
2020-03-31,07:40:00,DRY,4.77,5.17,35.3,769.00,28.7
2020-03-31,07:45:00,DRY,4.60,4.90,41.0,769.00,30.9
2020-03-31,07:50:00,DRY,6.13,4.83,41.7,769.00,32.9
2020-03-31,07:55:00,DRY,6.55,4.90,40.0,769.00,35.8
2020-03-31,08:00:00,DRY,5.50,5.07,35.7,769.00,40.6
2020-03-31,08:05:00,DRY,3.85,5.10,39.0,769.00,45.6
2020-03-31,08:10:00,DRY,5.60,5.07,38.0,769.00,102.6
2020-03-31,08:15:00,DRY,4.25,5.15,38.5,769.00,228.1
2020-03-31,08:20:00,DRY,5.17,5.27,37.7,769.00,357.2
2020-03-31,08:25:00,DRY,4.40,5.55,29.0,769.00,358.9
2020-03-31,08:30:00,DRY,5.30,5.73,27.0,769.00,404.9
2020-03-31,08:35:00,DRY,5.55,5.80,28.0,769.00,433.0
2020-03-31,08:40:00,DRY,4.30,5.70,33.7,769.00,462.7
2020-03-31,08:45:00,DRY,4.10,5.60,34.5,769.00,516.9
2020-03-31,08:50:00,DRY,6.70,5.90,28.7,769.00,595.5
2020-03-31,08:55:00,DRY,5.70,6.25,25.0,769.00,510.7
2020-03-31,09:00:00,DRY,4.47,6.10,25.7,769.00,179.3
2020-03-31,09:05:00,DRY,3.75,6.00,29.0,769.00,563.1
2020-03-31,09:10:00,DRY,3.60,6.23,26.3,769.00,594.0
2020-03-31,09:15:00,DRY,3.90,6.50,26.5,769.00,611.5
2020-03-31,09:20:00,DRY,3.63,6.70,23.3,769.00,632.6
2020-03-31,09:25:00,DRY,4.65,6.90,23.0,769.00,653.3
2020-03-31,09:30:00,DRY,3.53,6.97,24.7,769.00,672.7
2020-03-31,09:35:00,DRY,4.45,7.05,24.5,769.00,692.8
2020-03-31,09:40:00,DRY,3.10,7.07,22.7,769.00,711.9
2020-03-31,09:45:00,DRY,2.65,7.25,24.5,769.00,731.6
2020-03-31,09:50:00,DRY,3.90,7.47,23.7,769.00,751.9
2020-03-31,09:55:00,DRY,2.90,7.60,22.5,769.00,769.8
2020-03-31,10:00:00,DRY,3.50,7.83,23.7,769.00,789.3
2020-03-31,10:05:00,DRY,4.55,7.80,22.0,769.00,807.0
2020-03-31,10:10:00,DRY,4.90,7.87,20.3,769.00,823.7
2020-03-31,10:15:00,DRY,3.45,7.80,21.5,769.00,840.4
2020-03-31,10:20:00,DRY,4.33,7.97,23.0,769.00,857.7
2020-03-31,10:25:00,DRY,4.35,8.20,22.5,769.00,873.7
2020-03-31,10:30:00,DRY,4.27,8.17,22.0,769.00,890.1
2020-03-31,10:35:00,DRY,2.85,8.25,22.5,769.00,905.6
2020-03-31,10:40:00,DRY,4.47,8.40,22.7,769.33,922.1
2020-03-31,10:45:00,DRY,3.35,8.40,25.0,769.00,935.4
2020-03-31,10:50:00,DRY,2.77,8.53,26.7,769.33,950.8
2020-03-31,10:55:00,DRY,4.45,8.65,26.0,769.00,965.1
2020-03-31,11:00:00,DRY,5.27,8.63,26.7,769.00,979.5
2020-03-31,11:05:00,DRY,5.80,8.55,26.0,769.00,992.9
2020-03-31,11:10:00,DRY,5.07,8.57,27.3,769.67,1004.0
2020-03-31,11:15:00,DRY,4.15,8.30,29.0,770.00,1015.5
2020-03-31,11:20:00,DRY,5.07,8.67,30.7,770.00,1026.4
2020-03-31,11:25:00,DRY,5.15,8.70,28.5,770.00,1038.5
2020-03-31,11:30:00,DRY,5.10,8.73,30.3,770.00,1049.9
2020-03-31,11:35:00,DRY,2.70,8.70,30.5,770.00,1059.7
2020-03-31,11:40:00,DRY,5.87,8.80,34.3,769.67,1069.4
2020-03-31,11:45:00,DRY,6.25,9.05,33.0,770.00,1080.1
2020-03-31,11:50:00,DRY,4.70,8.73,36.7,770.00,1089.1
2020-03-31,11:55:00,DRY,6.30,8.80,37.5,769.50,1095.7
2020-03-31,12:00:00,DRY,4.80,8.77,37.0,769.67,1104.5
2020-03-31,12:05:00,DRY,3.65,8.80,39.5,770.00,1111.2
2020-03-31,12:10:00,DRY,4.43,8.77,40.0,769.67,1117.6
2020-03-31,12:15:00,DRY,4.45,9.10,39.5,769.50,1125.2
2020-03-31,12:20:00,DRY,5.63,9.03,40.0,769.67,1130.4
2020-03-31,12:25:00,DRY,4.75,9.00,40.5,770.00,1135.2
2020-03-31,12:30:00,DRY,4.83,8.87,40.0,770.00,1139.5
2020-03-31,12:35:00,DRY,4.40,9.25,39.5,770.00,1144.8
2020-03-31,12:40:00,DRY,3.47,9.03,40.0,769.67,1149.2
2020-03-31,12:45:00,DRY,5.60,9.10,39.0,770.00,1151.8
2020-03-31,12:50:00,DRY,3.03,9.57,39.0,770.00,1153.9
2020-03-31,12:55:00,DRY,3.85,9.35,40.0,770.00,1156.6
2020-03-31,13:00:00,DRY,2.97,9.43,37.7,770.00,1158.8
2020-03-31,13:05:00,DRY,5.10,9.60,39.0,770.00,1159.2
2020-03-31,13:10:00,DRY,4.13,9.37,40.0,770.00,1160.9
2020-03-31,13:15:00,DRY,5.25,9.25,40.0,770.00,1161.3
2020-03-31,13:20:00,DRY,4.40,9.37,40.7,770.00,1159.7
2020-03-31,13:25:00,DRY,4.75,9.15,40.5,770.00,1159.4
2020-03-31,13:30:00,DRY,5.20,9.30,42.0,770.00,1157.2
2020-03-31,13:35:00,DRY,3.90,9.30,39.0,770.00,1158.2
2020-03-31,13:40:00,DRY,4.20,9.70,40.7,770.00,1149.3
2020-03-31,13:45:00,DRY,4.25,9.40,40.5,770.00,1152.9
2020-03-31,13:50:00,DRY,4.70,9.30,41.7,770.00,1146.3
2020-03-31,13:55:00,DRY,4.75,9.10,42.0,770.00,1151.2
2020-03-31,14:00:00,DRY,4.27,9.20,39.0,770.00,1134.9
2020-03-31,14:05:00,DRY,3.95,9.65,39.5,770.00,1136.8
2020-03-31,14:10:00,DRY,5.10,9.53,39.3,770.00,1132.5
2020-03-31,14:15:00,DRY,5.20,9.35,40.0,769.50,1124.9
2020-03-31,14:20:00,DRY,2.73,9.77,38.0,770.00,1115.7
2020-03-31,14:25:00,DRY,3.00,9.60,40.0,770.00,1109.3
2020-03-31,14:30:00,DRY,3.00,9.80,38.3,770.00,1101.7
2020-03-31,14:35:00,DRY,4.85,9.25,38.5,770.00,1088.2
2020-03-31,14:40:00,DRY,4.60,9.37,38.7,770.00,1078.0
2020-03-31,14:45:00,DRY,3.65,9.35,39.5,770.00,1075.9
2020-03-31,14:50:00,DRY,4.70,9.23,36.7,770.00,1066.0
2020-03-31,14:55:00,DRY,4.55,9.90,39.5,769.50,1056.9
2020-03-31,15:00:00,DRY,4.17,9.70,39.7,769.67,1043.9
2020-03-31,15:05:00,DRY,2.55,9.05,40.0,769.50,1034.9
2020-03-31,15:10:00,DRY,3.10,9.23,40.0,769.67,1021.2
2020-03-31,15:15:00,DRY,5.60,9.10,39.5,769.50,1008.0
2020-03-31,15:20:00,DRY,5.80,9.30,38.0,769.33,995.7
2020-03-31,15:25:00,DRY,5.90,9.10,39.5,769.00,981.5
2020-03-31,15:30:00,DRY,3.07,9.67,38.7,769.33,967.2
2020-03-31,15:35:00,DRY,3.05,9.95,38.0,769.50,956.5
2020-03-31,15:40:00,DRY,3.13,9.60,37.7,769.33,940.7
2020-03-31,15:45:00,DRY,3.45,9.30,38.0,769.00,924.0
2020-03-31,15:50:00,DRY,3.90,9.00,38.3,769.67,907.9
2020-03-31,15:55:00,DRY,5.25,9.20,37.5,769.00,891.0
2020-03-31,16:00:00,DRY,4.77,9.23,36.3,769.33,876.0
2020-03-31,16:05:00,DRY,6.20,9.30,36.0,769.00,857.0
2020-03-31,16:10:00,DRY,4.53,8.97,34.3,769.33,839.2
2020-03-31,16:15:00,DRY,4.50,9.20,35.5,770.00,822.4
2020-03-31,16:20:00,DRY,5.07,9.03,33.7,769.33,803.9
2020-03-31,16:25:00,DRY,4.10,9.30,32.5,769.50,786.4
2020-03-31,16:30:00,DRY,4.60,9.13,33.3,770.00,766.2
2020-03-31,16:35:00,DRY,3.05,9.30,33.5,770.00,748.5
2020-03-31,16:40:00,DRY,4.73,9.30,32.0,769.67,729.0
2020-03-31,16:45:00,DRY,3.25,9.40,32.5,770.00,698.9
2020-03-31,16:50:00,DRY,3.00,9.17,32.7,769.67,691.4
2020-03-31,16:55:00,DRY,2.65,8.95,32.5,770.00,669.9
2020-03-31,17:00:00,DRY,2.40,9.20,32.3,770.00,634.7